ALE-2 (44824 NORAD) Tracking and Keplerian Element Data

This shows tracking and keplerian element data for the satellite.

Feedback or suggestion? Click here.




ElementValue
Catalog44824
NameALE-2
Epoch Orbit1844
Epoch Day94.12448904
Epoch Year2020
RAAN320.5666
Inclination96.9938
Eccentricity0.0012587
Argument of Perigee211.5046
Mean Anonmoly148.5454
Mean Motion15.54116324
Decay Rate4.039E-05
L11 44824U 19084A 20094.12448904 .00004039 00000-0 63488-4 0 9990
L22 44824 96.9938 320.5666 0012587 211.5046 148.5454 15.54116324 18448

Live tracking and technical data element details for ALE-2 (NORAD 44824). ALE-2 can be tracked NOW for your location showing map with azimuth and elevation plus other details from your city location.

Track the satellite on the map from your city or location and see movement details for azimuth, elevation, latitude, longitude, range, height, and movement on the map or in text.







IsCatalogInMostPopularTable: catalog: 44824, numindb: 39
Update: records affected: 1



GetName: 44824 ALE-2

Hit Count: updated at: Fri, 03 Apr 2020 23:47:33 GMT